Regional Weather Roundup
Issued by NWS Tiyan, Guam

Home | Current Version | Previous Version | Text Only | Print | Product List | Glossary On
Versions: 1 2 3 4 5 6 7 8 9 10 11 12 13 14 15 16 17 18 19 20 21 22 23 24 25 26 27 28 29 30 31 32 33 34 35 36 37 38 39 40 41 42 43 44 45 46 47
000
ASGM40 PGUM 140812
RWRGUM
WEATHER ROUNDUP FOR THE MARIANAS
NATIONAL WEATHER SERVICE TIYAN GU
600 PM CHST MON JUL 14 2014

GUZ001>004-140900-
MARIANA ISLANDS-

CITY           SKY/WX    TMP DP  RH WIND       PRES   REMARKS
GUAM AIRPORT   MOSUNNY   84  77  79 E9        29.86R HX  94
ANDERSEN AFB   SUNNY     82  77  83 E7        29.86R HX  91
ROTA AIRPORT   MOSUNNY   79  75  89 SE7       29.87S
TINIAN AP      MOSUNNY   81  75  83 E6        29.84R
SAIPAN AP      SUNNY     82  77  83 E6        29.85S HX  91

$$



USA.gov is the U.S. government's official web portal to all federal, state and local government web resources and services.